Change the Weather History Date:

Friday, November 7, 2014

  Actual Average Record
Temperature  
Mean Temperature 49 °F -  
Max Temperature 61 °F 67 °F 77 °F (2005)
Min Temperature 35 °F 44 °F 28 °F (2007)
Degree Days  
Heating Degree Days 16    
Moisture  
Dew Point 36 °F    
Average Humidity 63    
Maximum Humidity 100    
Minimum Humidity 37    
Precipitation  
Precipitation 0.00 in - - ()
Sea Level Pressure  
Sea Level Pressure 30.00 in    
Wind  
Wind Speed 7 mph (NW)    
Max Wind Speed 18 mph    
Max Gust Speed 23 mph    
Visibility 10 miles    
Events      
Averages and records for this station are not official NWS values.
T = Trace of Precipitation, MM = Missing Value Source: NWS Daily Summary

Daily Weather History Graph

Daily Weather History Graph

Search for Another Location

Airport or City:

Trip Planner

Search our weather history database for the weather conditions in past years. The results will help you decide how hot, cold, wet, or windy it might be!

Date:

Astronomy

Nov. 07, 2014 Rise Set
Actual Time 6:44 AM EST 5:18 PM EST
Civil Twilight 6:18 AM EST 5:44 PM EST
Nautical Twilight 5:48 AM EST 6:14 PM EST
Astronomical Twilight 5:18 AM EST 6:44 PM EST
Moon 6:10 PM EST (11/7) 7:18 AM EST (11/7)
Length of Visible Light 11h 26m
Length of Day
10h 33m
Full, 99% of the Moon is Illuminated
Nov 7
Full
Nov 14
Last Quarter
Nov 22
New
Nov 29
First Quarter
Dec 6
Full

Hourly Weather History & Observations

Time (EST) Temp. Windchill Dew Point Humidity Pressure Visibility Wind Dir Wind Speed Gust Speed Precip Events Conditions
12:56 AM 51.4 °F - 32.2 °F 48% 29.91 in 10.0 mi WNW 8.1 mph - N/A   Clear
1:56 AM 48.4 °F - 32.9 °F 55% 29.92 in 10.0 mi WNW 3.5 mph - N/A   Clear
2:56 AM 46.0 °F 43.9 °F 33.6 °F 62% 29.93 in 10.0 mi WNW 4.6 mph - N/A   Clear
3:56 AM 44.8 °F 41.0 °F 33.8 °F 65% 29.93 in 10.0 mi West 6.9 mph - N/A   Clear
4:53 AM 46.4 °F 42.4 °F 33.8 °F 62% 29.94 in 10.0 mi West 8.1 mph - N/A   Clear
4:56 AM 45.9 °F 41.7 °F 32.9 °F 61% 29.94 in 10.0 mi WNW 8.1 mph - N/A   Clear
5:13 AM 44.6 °F 41.4 °F 33.8 °F 66% 29.95 in 10.0 mi NW 5.8 mph - N/A   Clear
5:56 AM 44.1 °F 41.5 °F 33.6 °F 67% 29.96 in 10.0 mi WNW 4.6 mph - N/A   Clear
6:37 AM 41.0 °F 38.0 °F 33.8 °F 76% 29.97 in 10.0 mi NNW 4.6 mph - N/A   Clear
6:56 AM 40.8 °F 38.8 °F 34.2 °F 77% 29.98 in 10.0 mi North 3.5 mph - N/A   Clear
7:13 AM 41.0 °F 38.0 °F 33.8 °F 76% 29.99 in 10.0 mi NW 4.6 mph - N/A   Clear
7:27 AM 42.8 °F 39.3 °F 33.8 °F 70% 30.01 in 10.0 mi NW 5.8 mph - N/A   Clear
7:56 AM 45.7 °F 43.4 °F 35.2 °F 67% 30.02 in 10.0 mi NW 4.6 mph - N/A   Clear
8:55 AM 51.8 °F - 35.6 °F 54% 30.03 in 10.0 mi WNW 9.2 mph 13.8 mph N/A   Clear
8:56 AM 51.4 °F - 35.6 °F 55% 30.04 in 10.0 mi NW 11.5 mph 13.8 mph N/A   Clear
9:56 AM 55.2 °F - 34.5 °F 46% 30.04 in 10.0 mi NW 16.1 mph 21.9 mph N/A   Clear
10:56 AM 57.0 °F - 35.6 °F 45% 30.03 in 10.0 mi NW 11.5 mph 21.9 mph N/A   Clear
11:29 AM 57.2 °F - 35.6 °F 44% 30.01 in 10.0 mi North 13.8 mph 23.0 mph N/A   Clear
11:56 AM 58.8 °F - 35.4 °F 42% 30.02 in 10.0 mi NNW 10.4 mph 19.6 mph N/A   Clear
12:38 PM 60.8 °F - 37.4 °F 42% 29.99 in 10.0 mi NW 11.5 mph 20.7 mph N/A   Clear
12:56 PM 60.8 °F - 35.6 °F 39% 29.99 in 10.0 mi NNW 15.0 mph 20.7 mph N/A   Clear
1:03 PM 60.8 °F - 35.6 °F 39% 29.97 in 10.0 mi North 18.4 mph 23.0 mph N/A   Clear
1:56 PM 61.9 °F - 35.6 °F 38% 29.97 in 10.0 mi North 10.4 mph 16.1 mph N/A   Clear
2:56 PM 61.3 °F - 34.9 °F 37% 29.97 in 10.0 mi North 11.5 mph 16.1 mph N/A   Clear
3:40 PM 60.8 °F - 35.6 °F 39% 29.98 in 10.0 mi NNW 9.2 mph - N/A   Clear
3:56 PM 61.0 °F - 35.1 °F 38% 29.99 in 10.0 mi North 5.8 mph - N/A   Clear
4:56 PM 57.7 °F - 37.8 °F 47% 30.00 in 10.0 mi NW 4.6 mph - N/A   Clear
5:37 PM 51.8 °F - 41.0 °F 67% 30.01 in 10.0 mi WNW 2.3 mph - N/A   Clear
5:56 PM 49.1 °F - 40.1 °F 71% 30.02 in 10.0 mi NW 3.5 mph - N/A   Clear
6:56 PM 45.0 °F 43.5 °F 41.0 °F 86% 30.02 in 10.0 mi North 3.5 mph - N/A   Clear
7:17 PM 42.8 °F - 39.2 °F 87% 30.03 in 9.0 mi WNW 2.3 mph - N/A   Clear
7:56 PM 43.0 °F - 39.7 °F 88% 30.05 in 10.0 mi Calm Calm - N/A   Clear
8:52 PM 39.2 °F 37.0 °F 39.2 °F 100% 30.06 in 10.0 mi NNW 3.5 mph - N/A   Clear
8:56 PM 39.6 °F - 37.8 °F 93% 30.07 in 10.0 mi North 2.3 mph - N/A   Clear
9:56 PM 38.1 °F 35.7 °F 37.2 °F 97% 30.08 in 10.0 mi NNW 3.5 mph - N/A   Clear
10:56 PM 37.0 °F - 35.6 °F 95% 30.09 in 10.0 mi NNW 2.3 mph - N/A   Clear
11:56 PM 35.4 °F 32.6 °F 35.1 °F 99% 30.09 in 10.0 mi NNW 3.5 mph - N/A   Clear